カタログに戻る

AUDACY ZERO

運用中通信SSO
NORAD 43810·PAYLOAD·🇺🇸 United States
この衛星名は、まだ公式ソースで確認されていません。

打ち上げ Dec 3, 2018 から Vandenberg Space Force Base

Loading…

次のパス (今後24時間)

TLE

最新Source: Space-Track

元期: Sep 14, 2026, 13:10 UTC

1 43810U 18099BE  26257.54863662  .00002042  00000-0  12537-3 0  9994
2 43810  97.3815 294.2418 0008247  46.1172 314.0738 15.11156053425503

AllMySatでAUDACY ZEROをリアルタイム追跡

Download on the App Store